Sisseton, SD

11:45 AM CDT on April 23, 2018 (GMT -0500)
Sisseton

Weather History for K8D3 - October, 2011

Change the Weather History Date:

Thursday, October 13, 2011

  Actual Average Record
Temperature  
Mean Temperature 52 °F 48 °F  
Max Temperature 62 °F 59 °F 88 °F (1934)
Min Temperature 42 °F 37 °F 18 °F (1937)
Degree Days  
Heating Degree Days 13 17  
Month to date heating degree days 44 194  
Since 1 July heating degree days 260 439  
Cooling Degree Days 0 0  
Month to date cooling degree days 19 0  
Year to date cooling degree days 642 523  
Growing Degree Days 2 (Base 50)    
Moisture  
Dew Point 42 °F    
Average Humidity 68    
Maximum Humidity 93    
Minimum Humidity 42    
Precipitation  
Precipitation 0.25 in 0.07 in 1.55 in (1943)
Month to date precipitation 0.90 1.10  
Year to date precipitation 20.83 20.38  
Snow  
Snow 0.00 in - - ()
Month to date snowfall 0.0  
Since 1 July snowfall 0.0  
Snow Depth 0.00 in    
Sea Level Pressure  
Sea Level Pressure 29.73 in    
Wind  
Wind Speed 12 mph (NNW)    
Max Wind Speed 46 mph    
Max Gust Speed 58 mph    
T = Trace of Precipitation, MM = Missing Value Source: NWS Daily Summary

Daily Weather History Graph

Daily Weather History Graph

Search for Another Location

Airport or City:

Astronomy

Oct. 13, 2011 Rise Set
Actual Time 7:41 AM CDT 6:46 PM CDT
Civil Twilight 7:11 AM CDT 7:16 PM CDT
Nautical Twilight 6:37 AM CDT 7:50 PM CDT
Astronomical Twilight 6:02 AM CDT 8:24 PM CDT
Moon 7:13 PM CDT (10/13) 9:22 AM CDT (10/13)
Length of Visible Light 12h 04m
Length of Day
11h 04m
Full, 98% of the Moon is Illuminated
Oct 13
Full
Oct 19
Last Quarter
Oct 26
New
Nov 2
First Quarter
Nov 10
Full

Hourly Weather History & Observations

Time (CDT) Temp. Windchill Dew Point Humidity Pressure Visibility Wind Dir Wind Speed Gust Speed Precip Events Conditions
12:56 AM 54.0 °F - 45.0 °F 72% 29.72 in - NNW 10.4 mph - N/A   Unknown
1:56 AM 52.0 °F - 44.1 °F 74% 29.73 in - NW 9.2 mph - N/A   Unknown
2:56 AM 51.1 °F - 44.1 °F 77% 29.72 in - NW 9.2 mph - N/A   Unknown
3:56 AM 48.9 °F - 44.1 °F 83% 29.73 in - NW 10.4 mph - N/A   Unknown
4:56 AM 48.0 °F - 44.1 °F 86% 29.73 in - NNW 9.2 mph - N/A   Unknown
5:56 AM 46.9 °F - 44.1 °F 90% 29.74 in - NNW 9.2 mph - N/A   Unknown
6:56 AM 48.0 °F - 45.0 °F 89% 29.76 in - North 12.7 mph - N/A   Unknown
7:56 AM 48.0 °F - 43.0 °F 83% 29.76 in - NNW 13.8 mph - N/A   Unknown
8:56 AM 48.0 °F - 43.0 °F 83% 29.76 in - NNW 12.7 mph - N/A   Unknown
9:56 AM 52.0 °F - 43.0 °F 71% 29.75 in - NNW 11.5 mph - N/A   Unknown
10:56 AM 55.0 °F - 39.9 °F 57% 29.75 in - NNW 13.8 mph - N/A   Unknown
11:56 AM 57.9 °F - 39.0 °F 49% 29.73 in - NNW 15.0 mph 20.7 mph N/A   Unknown
12:56 PM 61.0 °F - 37.9 °F 42% 29.71 in - NNW 10.4 mph 18.4 mph N/A   Unknown
1:56 PM 57.9 °F - 39.9 °F 51% 29.71 in - North 15.0 mph 21.9 mph N/A   Unknown
2:56 PM 60.1 °F - 42.1 °F 51% 29.70 in - NW 10.4 mph 17.3 mph N/A   Unknown
3:56 PM 60.1 °F - 43.0 °F 53% 29.68 in - NNW 11.5 mph - N/A   Unknown
4:56 PM 62.1 °F - 39.9 °F 44% 29.66 in - NW 16.1 mph - N/A   Unknown
5:56 PM 55.0 °F - 37.9 °F 53% 29.69 in - NNE 11.5 mph - N/A   Unknown
6:56 PM 43.0 °F 32.9 °F 39.0 °F 86% 29.76 in - North 27.6 mph 57.5 mph 0.15 in   Unknown
7:56 PM 45.0 °F 40.6 °F 42.1 °F 90% 29.75 in - WNW 8.1 mph - 0.10 in   Unknown
8:56 PM 46.0 °F 42.5 °F 41.0 °F 83% 29.75 in - NNW 6.9 mph - N/A   Unknown
9:56 PM 48.9 °F - 42.1 °F 77% 29.74 in - NW 10.4 mph - N/A   Unknown
10:56 PM 48.9 °F - 43.0 °F 80% 29.73 in - NW 10.4 mph - N/A   Unknown
11:56 PM 48.0 °F - 42.1 °F 80% 29.72 in - NW 12.7 mph - N/A   Unknown